Location: Kitchener
(43.4500°N, 80.5000°W)
Time: 18:26:35
(UTC-05:00)

Envisat - Visible Passes

Search period start: 15 February 2019 00:00
Search period end: 25 February 2019 00:00
Orbit: 764 x 766 km, 98.2° (Epoch: 15 February)

Date Brightness Start Highest point End Pass type
(mag) Time Alt. Az. Time Alt. Az. Time Alt. Az.
15 Feb 3.0 18:38:52 10° SSE 18:43:50 58° ENE 18:48:50 10° N visible
15 Feb 5.7 20:19:53 10° SW 20:23:14 18° W 20:26:36 10° NW visible
16 Feb 6.0 06:47:36 10° NE 06:51:07 18° E 06:54:35 10° SE visible
16 Feb 4.5 19:41:30 10° SSW 19:46:11 38° W 19:50:54 10° NNW visible
17 Feb 3.1 19:04:15 10° SSE 19:09:20 82° WSW 19:14:27 10° NNW visible
18 Feb 3.3 18:27:50 10° SE 18:32:40 46° ENE 18:37:31 10° N visible
18 Feb 5.4 20:08:01 10° SW 20:11:54 22° W 20:15:50 10° NW visible
19 Feb 6.3 06:37:00 10° NE 06:39:46 15° E 06:42:31 10° ESE visible
19 Feb 4.0 19:30:03 10° S 19:34:55 47° W 19:39:50 10° NNW visible
20 Feb 2.9 18:53:03 10° SSE 18:58:07 80° ENE 19:03:13 10° N visible
20 Feb 6.1 20:35:37 10° WSW 20:37:45 13° W 20:39:53 10° WNW visible
21 Feb 5.1 19:56:19 10° SSW 20:00:36 27° W 20:04:56 10° NW visible
22 Feb 6.6 06:26:52 10° ENE 06:28:25 11° E 06:29:57 10° ESE visible
22 Feb 3.6 19:18:40 10° S 19:23:40 60° W 19:28:43 10° NNW visible
23 Feb 3.0 18:41:56 10° SSE 18:46:56 64° ENE 18:51:58 10° N visible
23 Feb 5.9 20:23:19 10° SW 20:26:24 16° W 20:29:29 10° NW visible
24 Feb 4.7 19:44:43 10° SSW 19:49:19 34° W 19:53:56 10° NNW visible
